Location: Branche des Alpilles
(43.6087°N, 4.6976°E)
Time: 04:41:45
(UTC+00:00)

YAOGAN 6 - Pass Details

Date: 30 November 2020
Orbit: 466 x 502 km, 97.0° (Epoch: 24 January)

Event Time Altitude Azimuth Distance (km) Brightness Sun altitude
Rises 17:09:43 0° 181° (S) 2,567 6.5 -11.3°
Reaches altitude 10° 17:11:51 10° 187° (S) 1,685 5.7 -11.7°
Maximum altitude 17:15:21 45° 261° (W) 681 3.8 -12.3°
Drops below altitude 10° 17:18:50 10° 336° (NNW) 1,679 5.4 -12.9°
Sets 17:20:57 0° 342° (NNW) 2,558 6.2 -13.2°
